TimeCDT,TemperatureF,Dew PointF,Humidity,Sea Level PressureIn,VisibilityMPH,Wind Direction,Wind SpeedMPH,Gust SpeedMPH,PrecipitationIn,Events,Conditions,WindDirDegrees,DateUTC
12:53 AM,36.0,27.0,70,30.10,10.0,SE,5.8,-,N/A,,Clear,140,2013-04-21 05:53:00
1:53 AM,35.1,27.0,72,30.09,10.0,SE,4.6,-,N/A,,Clear,140,2013-04-21 06:53:00
2:53 AM,30.9,26.1,82,30.08,10.0,Calm,Calm,-,N/A,,Clear,0,2013-04-21 07:53:00
3:53 AM,30.0,26.1,85,30.07,10.0,NNW,3.5,-,N/A,,Clear,330,2013-04-21 08:53:00
4:53 AM,28.0,25.0,88,30.06,10.0,Calm,Calm,-,N/A,,Clear,0,2013-04-21 09:53:00
5:53 AM,30.0,26.1,85,30.04,10.0,Calm,Calm,-,N/A,,Partly Cloudy,0,2013-04-21 10:53:00
6:53 AM,28.9,27.0,92,30.06,10.0,Calm,Calm,-,N/A,,Partly Cloudy,0,2013-04-21 11:53:00
7:53 AM,30.9,28.0,89,30.06,10.0,ESE,3.5,-,N/A,,Clear,120,2013-04-21 12:53:00
8:53 AM,39.9,33.1,77,30.05,10.0,Variable,5.8,-,N/A,,Clear,0,2013-04-21 13:53:00
9:53 AM,44.1,37.0,76,30.05,10.0,South,8.1,-,0.00,Rain,Light Rain,190,2013-04-21 14:53:00
10:53 AM,46.9,37.0,68,30.05,10.0,South,6.9,-,0.00,,Overcast,180,2013-04-21 15:53:00
11:53 AM,52.0,37.9,59,30.05,10.0,South,6.9,-,N/A,,Overcast,190,2013-04-21 16:53:00
12:53 PM,59.0,37.9,46,30.02,10.0,SSW,8.1,-,N/A,,Overcast,200,2013-04-21 17:53:00
1:53 PM,63.0,39.0,41,30.01,10.0,NW,3.5,-,N/A,,Scattered Clouds,310,2013-04-21 18:53:00
2:53 PM,63.0,39.9,43,30.01,10.0,North,6.9,-,N/A,,Overcast,350,2013-04-21 19:53:00
3:53 PM,63.0,39.0,41,30.01,10.0,North,9.2,-,N/A,,Mostly Cloudy,350,2013-04-21 20:53:00
4:53 PM,66.0,39.0,37,29.99,10.0,NE,8.1,-,N/A,,Partly Cloudy,50,2013-04-21 21:53:00
5:53 PM,64.9,37.9,37,30.00,10.0,NNE,10.4,-,N/A,,Clear,20,2013-04-21 22:53:00
6:53 PM,61.0,37.9,42,30.03,10.0,NNE,16.1,-,N/A,,Clear,20,2013-04-21 23:53:00
7:53 PM,53.1,42.1,66,30.08,10.0,NNE,18.4,25.3,N/A,,Clear,20,2013-04-22 00:53:00
8:53 PM,48.9,39.9,71,30.11,10.0,NNE,13.8,-,N/A,,Mostly Cloudy,20,2013-04-22 01:53:00
9:53 PM,46.0,39.0,76,30.15,10.0,North,13.8,-,N/A,,Mostly Cloudy,360,2013-04-22 02:53:00
10:53 PM,43.0,37.9,82,30.15,6.0,NE,12.7,23.0,0.02,Rain,Rain,40,2013-04-22 03:53:00
11:08 PM,42.8,37.4,81,30.11,10.0,NNE,17.3,-,0.00,Rain,Light Rain,30,2013-04-22 04:08:00
11:17 PM,42.8,37.4,81,30.11,10.0,NNE,13.8,-,0.00,,Scattered Clouds,30,2013-04-22 04:17:00
11:53 PM,41.0,37.0,86,30.14,10.0,Variable,3.5,-,0.00,,Clear,0,2013-04-22 04:53:00